CW7779 Weather Reports


Display with metric or nautical units.
time (UTC)temp
F
wind
direction
speed
MPH
gust
MPH
rain 1hr
in
rain 24hr
in
rain mn
in
humidity
%
barometer
mb
20260503021538 54 15 1.0 7.0 0.00 0.35 0.35 85 1013.0
20260503020036 54 17 0.0 4.0 0.00 0.35 0.35 86 1012.9
20260503014535 54 38 1.0 7.0 0.00 0.35 0.35 87 1012.5
20260503013044 54 39 1.0 7.0 0.00 0.35 0.35 88 1012.4
20260503011538 55 47 0.0 4.0 0.00 0.35 0.35 89 1012.1
20260503010038 54 344 0.0 8.0 0.00 0.35 0.35 88 1011.9
20260503004532 55 347 3.0 11.0 0.01 0.35 0.35 87 1011.6
20260503003030 55 348 1.0 9.0 0.01 0.35 0.35 88 1011.5
20260503001528 56 13 0.0 5.0 0.01 0.35 0.35 88 1011.3
20260503000026 56 37 1.0 9.0 0.01 0.35 0.35 88 1011.0
20260502234524 57 17 2.0 15.0 0.00 0.34 0.34 88 1010.9
20260502233022 57 28 2.0 12.0 0.03 0.34 0.34 88 1010.9
20260502231521 57 40 2.0 9.0 0.03 0.34 0.34 87 1010.5
20260502230024 57 334 1.0 7.0 0.05 0.34 0.34 87 1010.4
20260502224519 57 3 0.0 7.0 0.08 0.34 0.34 88 1010.3
20260502223019 58 337 0.0 4.0 0.05 0.31 0.31 88 1010.4
20260502221518 58 11 1.0 8.0 0.05 0.31 0.31 88 1010.3
20260502220017 58 52 0.0 4.0 0.04 0.28 0.28 87 1010.4
20260502214526 58 326 1.0 6.0 0.01 0.26 0.26 87 1009.7
20260502213017 58 38 1.0 3.0 0.01 0.26 0.26 87 1009.6
20260502211525 58 23 1.0 5.0 0.02 0.26 0.26 87 1009.2
20260502210026 58 28 1.0 11.0 0.01 0.25 0.25 87 1009.9
20260502204517 58 47 0.0 7.0 0.01 0.25 0.25 87 1009.8
20260502203014 58 44 1.0 7.0 0.02 0.25 0.25 87 1009.9
20260502201518 58 44 1.0 4.0 0.03 0.24 0.24 87 1010.0
20260502200013 58 12 1.0 7.0 0.04 0.24 0.24 87 1010.0
20260502194512 58 42 1.0 14.0 0.05 0.24 0.24 87 1009.9
20260502193012 59 45 2.0 9.0 0.06 0.23 0.23 87 1010.3
20260502191512 59 104 1.0 7.0 0.05 0.21 0.21 87 1010.5
20260502190020 59 56 1.0 5.0 0.05 0.20 0.20 87 1010.9
20260502184511 59 13 1.0 5.0 0.04 0.19 0.19 87 1010.9
20260502183010 59 28 1.0 9.0 0.02 0.17 0.17 87 1010.6
20260502181510 59 38 2.0 8.0 0.01 0.16 0.16 87 1010.3
20260502163009 59 43 2.0 7.0 0.08 0.13 0.13 87 1012.1
20260502161505 59 51 2.0 5.0 0.09 0.12 0.12 86 1012.3
20260502151502 60 11 0.0 6.0 0.00 0.03 0.03 84 1011.5
20260502123056 59 30 2.0 11.0 0.00 0.03 0.03 87 1011.8
20260502121556 58 41 0.0 8.0 0.00 0.03 0.03 87 1011.6
20260502120108 58 32 3.0 15.0 0.01 0.03 0.03 87 1011.7
20260502114632 58 3 3.0 13.0 0.01 0.03 0.03 88 1011.4
20260502113053 58 331 2.0 11.0 0.01 0.03 0.03 88 1011.1
20260502111552 58 339 1.0 9.0 0.01 0.03 0.03 88 1010.9
20260502110050 58 13 1.0 8.0 0.01 0.02 0.02 88 1010.7
20260502104549 58 315 0.0 6.0 0.01 0.02 0.02 87 1010.5
20260502103047 58 353 2.0 7.0 0.02 0.02 0.02 87 1010.4
20260502101602 59 342 1.0 4.0 0.02 0.02 0.02 86 1010.4
20260502071536 60 11 0.0 2.0 0.00 0.00 0.00 82 1010.7
20260502070035 60 11 0.0 2.0 0.00 0.00 0.00 80 1010.8
20260502064554 60 13 0.0 4.0 0.00 0.00 0.00 79 1011.0
20260502063033 60 42 0.0 3.0 0.00 0.00 0.00 78 1011.0
20260502061532 60 42 0.0 2.0 0.00 0.00 0.00 77 1011.3
20260502060042 60 44 1.0 5.0 0.00 0.00 0.00 77 1011.2
20260502054531 60 39 0.0 4.0 0.00 0.00 0.00 77 1011.5
20260502053031 60 37 0.0 3.0 0.00 0.00 0.00 76 1011.9
20260502051533 60 36 0.0 3.0 0.00 0.00 0.00 76 1012.0
20260502050030 60 38 0.0 4.0 0.00 0.00 0.00 75 1012.0
20260502044527 60 38 1.0 3.0 0.00 0.00 0.00 74 1012.2
20260502043028 60 38 0.0 5.0 0.00 0.00 0.00 74 1012.2
20260502041533 60 32 1.0 3.0 0.00 0.00 0.00 75 1012.3
20260502040024 60 57 1.0 3.0 0.00 0.00 0.00 74 1012.4
20260502034523 60 52 1.0 4.0 0.00 0.00 0.00 73 1012.5
20260502033028 60 53 1.0 2.0 0.00 0.00 0.00 73 1012.5
20260502031522 60 57 1.0 3.0 0.00 0.00 0.00 72 1012.7
20260502030021 61 64 0.0 3.0 0.00 0.00 0.00 72 1013.0
20260502024521 61 69 0.0 3.0 0.00 0.00 0.00 71 1013.0
20260502023021 61 69 1.0 4.0 0.00 0.00 0.00 69 1012.9